{"data":{"norad_id":64904,"intl_designator":"2025-157A","name":"STARLINK-34647","alt_names":[],"object_type":"PAYLOAD","status":"ACTIVE","operator":null,"country":"US","launch_date":"2025-07-26","launch_site_code":"AFETR","launch_vehicle":null,"mission":null,"orbit_class":"UNKNOWN","rcs_meters":null,"size_class":null,"mass_kg":null,"dimensions":null,"purposes":["comms"],"wikipedia_slug":null,"has_3d_model":false,"image_url":null,"decayed_at":null,"tle_current":{"epoch":"2026-09-20T05:21:16.468992Z","epoch_age_seconds":148186,"freshness":"FRESH","line1":"1 64904U 25157A   26263.22310728  .00025890  00000+0  77407-3 0  9998","line2":"2 64904  53.1611 158.8318 0001286  67.9496 292.1644 15.34427796 65944","mean_motion":15.34427796,"eccentricity":0.0001286,"inclination_deg":53.1611,"raan_deg":158.8318,"arg_perigee_deg":67.9496,"mean_anomaly_deg":292.1644,"bstar":0.00077407,"rev_number":6594,"period_min":93.846058038954,"perigee_km":461.74090445382,"apogee_km":463.5003473152,"semimajor_km":6840.7576258845,"source":"CELESTRAK","updated_at":"2026-09-21T09:00:35.453512Z"}}}